www.pogodaiklimat.ru

Погода и климат >> Архив погоды >> Россия >> Ростовская область >> Ростов-на-Дону


АРХИВ ПОГОДЫ в Ростове-на-Дону

Время (UTC), дата Ветер
(напр.,м/с)
 
Видим.   Явления Облачность Т
(С)
Тd
(С)
f
(%)
Тe
(С)
Тes
(С)
Комфортность P
(гПа)
Po
(гПа)
Тmin
(С)
Tmax
(С)
R
(мм)
R24
(мм)
S
(см)
18 13.07 н/о 4/0
[Ac trans]
+16.1 +12.5 79 1010.2 1000.4
21 13.07 н/о ясно +14.7 +13.3 91 1010.3 1000.5
00 14.07 н/о ясно +13.7 +12.6 93 1010.1 1000.2
03 14.07 н/о ясно +14.5 +14.0 97 1010.2 1000.4 +13.4
06 14.07 н/о ясно +22.7 +15.2 63 1009.8 1000.2
09 14.07 н/о 8/8 600 м
[Cb calv]
+25.0 +12.3 45 1009.3 999.8
12 14.07 н/о 8/8 600 м
[Cb calv]
+27.1 +9.6 33 1008.3 998.9
15 14.07 н/о гроза без осадков 8/8 600 м
[Cb calv]
+21.6 +9.5 46 1009.1 999.5 +28.3
18 14.07 н/о {гроза} 3/0
[Ci fib]
+18.4 +11.5 64 1009.1 999.4
21 14.07 н/о ясно +16.5 +11.8 74 1008.9 999.1
00 15.07 н/о 1/0
[Ci fib]
+16.0 +12.2 78 1008.0 998.2
03 15.07 н/о ясно +15.2 +12.1 82 1008.1 998.3 +14.7
06 15.07 н/о ясно +23.3 +12.3 50 1007.6 998.1
09 15.07 н/о 9/0
[Ci fib]
+27.6 +10.4 34 1006.5 997.1
12 15.07 н/о 9/3 600 м
[Cb calv Ac trans Ci fib]
+27.6 +10.0 33 1005.5 996.1
15 15.07 н/о 10/4 1000 м
[Cb calv Ac und]
+26.7 +11.1 38 1005.3 995.9 +29.0
18 15.07 н/о слаб. ливневой дождь, в посл. час гроза 10/8 600 м
[Cb calv Ac und]
+18.5 +16.5 88 1007.2 997.5
21 15.07 н/о слаб. ливневой дождь 10/8 600 м
[Cb calv Ac und]
+17.5 +16.3 93 1007.1 997.4
00 16.07 н/о ливневой дождь 10/8 600 м
[Cb calv Ac und]
+16.8 +15.7 93 1006.7 997.0
03 16.07 н/о {ливн. осадки} 10/8 600 м
[Cb calv Ac und]
+16.6 +15.1 91 1005.9 996.2 +16.6 15
06 16.07 н/о {ливн. осадки} 9/8 600 м
[Cb calv Ac trans]
+19.0 +16.4 85 1005.5 995.9 +16.5
09 16.07 н/о в посл. час ливневой дождь 8/5 600 м
[Cb calv Ac trans]
+21.9 +16.4 71 1004.9 995.4
12 16.07 н/о в посл. час ливневой дождь 9/8 600 м
[Cb calv Ac trans]
+21.9 +16.8 73 1003.8 994.3
15 16.07 н/о гроза без осадков 10/8 600 м
[Cb cap Ac und]
+20.5 +16.7 79 1003.9 994.3 +24.3 0.0
18 16.07 н/о {гроза, ливн. осадки} 10/6 600 м
[Cb calv Ac und]
+19.6 +16.8 84 1005.4 995.8
21 16.07 н/о слаб. ливневой дождь 9/5 600 м
[Cb calv Ac trans]
+18.6 +16.6 88 1006.3 996.6
00 17.07 н/о {ливн. осадки} 6/0
[Ac trans]
+17.6 +15.1 85 1007.1 997.4
03 17.07 н/о 5/0
[Ac trans]
+17.3 +14.8 85 1007.4 997.7 +17.0 0.0
06 17.07 н/о ясно +22.9 +15.5 63 1007.6 998.1
09 17.07 н/о 3/3 600 м
[Cb calv]
+26.5 +14.3 47 1007.1 997.7
12 17.07 н/о 3/0
[Ci fib]
+27.5 +11.0 36 1006.9 997.5
15 17.07 н/о 4/0
[Ci fib]
+27.1 +10.8 36 1006.5 997.1 +28.6
18 17.07 н/о ясно +19.8 +13.8 68 1007.4 997.8
21 17.07 н/о ясно +17.8 +14.5 81 1007.8 998.1
00 18.07 н/о ясно +17.0 +15.5 91 1007.5 997.8
03 18.07 н/о 3/3 600 м
[Cb calv]
+17.4 +15.7 90 1008.2 998.5 +16.4
06 18.07 н/о дымка 5/0
[Ac trans]
+25.1 +17.0 61 1008.4 998.9
09 18.07 н/о 8/0
[Ac trans Ci fib]
+25.4 +14.5 51 1009.0 999.5
12 18.07 н/о 10/0
[Ac trans Ci fib]
+23.1 +15.4 62 1009.7 1000.2
15 18.07 н/о 10/0
[Ac trans Ci fib]
+22.3 +15.9 67 1010.3 1000.7 +25.7
18 18.07 н/о 4/0
[Ci fib]
+19.1 +16.1 83 1011.4 1001.7
21 18.07 н/о дымка ясно +17.0 +15.6 91 1012.2 1002.4
00 19.07 н/о дымка ясно +16.8 +16.3 97 1012.7 1002.9
03 19.07 н/о дымка 8/0
[Ac trans]
+17.3 +17.3 100 1013.8 1004.0 +16.2
06 19.07 н/о ясно +23.6 +17.0 66 1014.3 1004.7
09 19.07 н/о 4/3 600 м
[Cu hum Ci fib]
+26.7 +17.0 55 1014.0 1004.5
12 19.07 н/о 3/3 1000 м
[Cu hum]
+29.7 +10.9 31 1013.4 1004.0
15 19.07 н/о 1/1 1000 м
[Cu hum]
+28.4 +14.0 41 1013.6 1004.2 +30.8
18 19.07 н/о ясно +22.6 +14.4 60 1015.3 1005.7
21 19.07 н/о ясно +18.5 +15.5 83 1016.2 1006.4
00 20.07 н/о ясно +17.0 +11.8 71 1016.9 1007.1
03 20.07 н/о ясно +16.8 +11.0 69 1018.2 1008.3 +15.8
06 20.07 н/о ясно +26.5 +9.0 33 1018.5 1009.0
09 20.07 н/о 1/0
[Ac trans]
+29.4 +8.3 27 1018.3 1008.8
12 20.07 н/о 3/0
[Ac trans]
+30.6 +7.3 23 1017.7 1008.3

 

Местоположение метеостанции Ростов-на-Дону (Ростовская область, Россия): широта 47.27 долгота 39.82 высота над уровнем моря 75 м.

В архиве по умолчанию представлена погода в Ростове-на-Дону за последнюю неделю. Архивные данные за месяц целиком и за предыдущие месяцы, начиная с января 2011 года, Вы можете получить, выбрав интересующий диапазон дат из раскрывающегося списка и нажав кнопку "Ввод!".


*Определитесь, кто Вы:
робот инопланетянин человек

Внимание! Время в таблицах - всемирное. Для получения местного времени необходимо прибавить поправку, которая равна 3 ч.

Смотрите также архив погоды в соседних городах и на ближайших метеорологических станциях:

Погода в Аэропорту Платов (Ростовская область, Россия) (26 км)
Погода в Шахтах (Ростовская область, Россия) (59 км)
Погода в Зерноград (Ростовская область, Россия) (60 км)
Погода в Таганроге (Ростовская область, Россия) (70 км)
Погода в Матвеевом Кургане (Ростовская область, Россия) (78 км)
Погода в Семикаракорске (Ростовская область, Россия) (81 км)
Погода в Маргаритово (Ростовская область, Россия) (81 км)
Погода в Кущевской (Краснодарский край, Россия) (84 км)
Погода в Константиновске (Ростовская область, Россия) (102 км)
Погода в Староминская (Краснодарский край, Россия) (102 км)

Пояснения к столбцам:

Ветер - указаны скорость ветра в м/с - средняя за 10 мин, порывы в срок и между сроками (в фигурных скобках) и направление, откуда дует ветер: С - северный, СВ - северо-восточный, В - восточный, ЮВ - юго-восточный, Ю - южный, ЮЗ - юго-западный, З - западный, СЗ - северо-западный.
Видимость - горизонтальная дальность видимости в метрах или километрах. При видимости от 1 до 10 км при отсутствии осадков обычно наблюдается дымка, при ухудшении видимости до 1 км и менее - туман. В сухую погоду видимость может ухудшаться дымом, пылью или мглою.
Явления - указаны атмосферные явления, наблюдавшиеся в срок или в последний час перед сроком; фигурными скобками обозначены явления, наблюдавшиеся между сроками (за 1-3 часа до срока); квадратными скобками обозначены град или гололедные отложения с указанием их диаметра в мм.
Облачность - указаны через наклонную черту общая и нижняя облачность в баллах и высота нижней границы облаков в метрах; квадратными скобками обозначены формы облаков: Ci - перистые, Cs - перисто-слоистые, Cc - перисто-кучевые, Ac - высококучевые, As - высокослоистые, Sc - слоисто-кучевые, Ns - слоисто-дождевые, Cu - кучевые, Cb - кучево-дождевые. Подробнее классификацию облаков см. в Атласе облаков (PDF).
T - Температура воздуха - температура, измеренная на высоте 2 м над землей.
Td - Температура точки росы - температура, при понижении до которой содержащийся в воздухе водяной пар достигнет насыщения.
f - Относительная влажность воздуха - влажноcть воздуха, измеренная на высоте 2 м над землей.
Te - Эффективная температура - температура, которую ощущает одетый по сезону человек в тени. Характеристика душности погоды. При расчете учитывается влияние влажности воздуха и скорости ветра на теплоощущения человека.
Tes - Эффективная температура на солнце - температура, которую ощущает человек, с поправкой на солнечный нагрев. Характеристика знойности погоды. Зависит от высоты солнца над горизонтом, облачности и скорости ветра. Ночью, в пасмурную погоду, а также при ветре 12 м/с и более поправка равна нулю.
P - Атмосферное давление - приведенное к уровню моря атмосферное давление.
Po - Атмосферное давление - измеренное на уровне метеостанции атмосферное давление.
Tmin - Минимальная температура - минимум температуры воздуха на высоте 2 м над землей.
Tmax - Максимальная температура - максимум температуры воздуха на высоте 2 м над землей.
R - Количество осадков - Количество выпавших осадков за период времени, мм. При наведении курсора мыши на число - период времени, за который выпало указанное количество осадков.
R24 - Количество осадков - Количество выпавших осадков за 24 часа, мм.
S - Снежный покров - Высота снежного покрова, см. При наведении курсора мыши на число - состояние снежного покрова и степень покрытия местности в баллах.